Weather in Bikhov

Belarus     53°31′05″N   30°14′25″E
temp.,
°C
wind,
m/s
gust,
m/s
humid.,
%
clouds,
%
prec.,
mm/h
press.,
hPa
HPBL,
m
4 august, wed
wed400:00+17w3763100 0.0 1015192
03:00+16w2470100 0.0 1016117
06:00+12w33905 0.0 101658
09:00+18w236475 0.0 1017466
12:00+22wsw344693 0.0 10171801
15:00+24w463678 0.0 10162602
18:00+22wnw234874 0.0 1016564
21:00+17e226242 0.0 101615
5 august, thu
thu500:00+16ese3764100 0.0 1016136
03:00+15sse2381100 0.4 101561
06:00+15se249455 0.4 1014169
09:00+18s347791 0.8 1014540
12:00+22s3459100 0.0 10121186
15:00+18s4684100 0.3 1012324
18:00+19sse3483100 0.7 1011435
21:00+17e2392100 1.4 101165
6 august, fri
fri600:00+16e3697100 0.0 1010186
03:00+16e51096100 0.0 1008298
06:00+15e5998100 4.1 1006326
09:00+16e579699 6.7 1005419
12:00+21se5981100 0.0 1005929
15:00+25sse61057100 0.8 10031079
18:00+23sse61179100 2.1 1003449
21:00+18sse5119619 3.5 1004264
7 august, sat
sat700:00+17s349797 0.2 100689
03:00+16wsw229585 0.3 100630
06:00+14wsw22965 0.0 100743
09:00+18wsw2384100 0.0 1007333
12:00+16sw2495100 1.2 1009241
15:00+21sw127278 1.8 1009797
18:00+22wnw347195 0.1 1009529
21:00+17wnw358458 0.1 101096
8 august, sun
sun800:00+14wnw38945 0.0 1012170
03:00+12wnw34950 0.0 101374
06:00+12nw24950 0.0 101382
09:00+17wnw34710 0.0 1014412
12:00+22wnw35500 0.0 10141493
15:00+25wnw56385 0.0 10132106
18:00+24wnw47463 0.0 10141766
21:00+17nw336895 0.0 101635